• In Hungary
  • List of Countries
  • For 7 days
  • Water Temperature
  • Satellite Maps
  • Weather Map
  • News
  • Weather Widgets
  • user-avatar
    Login

    Hourly Weather Ahtopol

    Today, 26 September, Wednesday

    Time Temperature Precipitation Wind Pressure Humidity
    00:00 +10°C° 0 mm 6 mps 770 mmHg 50%
    01:00 +10°C° 0 mm 6 mps 770 mmHg 52%
    02:00 +9°C° 0 mm 7 mps 771 mmHg 55%
    03:00 +9°C° 0 mm 7 mps 771 mmHg 56%
    04:00 +9°C° 0 mm 7 mps 771 mmHg 56%
    05:00 +7°C° 0 mm 8 mps 771 mmHg 56%
    06:00 +9°C° 0 mm 8 mps 771 mmHg 54%
    07:00 +10°C° 0 mm 8 mps 771 mmHg 53%
    08:00 +10°C° 0 mm 9 mps 772 mmHg 50%
    09:00 +12°C° 0 mm 9 mps 772 mmHg 46%
    10:00 +13°C° 0 mm 9 mps 772 mmHg 42%
    11:00 +15°C° 0 mm 9 mps 772 mmHg 37%
    12:00 +16°C° 0 mm 9 mps 772 mmHg 36%
    13:00 +17°C° 0 mm 9 mps 771 mmHg 34%
    14:00 +17°C° 0 mm 9 mps 771 mmHg 32%
    15:00 +17°C° 0 mm 9 mps 771 mmHg 34%
    16:00 +16°C° 0 mm 9 mps 771 mmHg 36%
    17:00 +16°C° 0 mm 9 mps 771 mmHg 38%
    18:00 +13°C° 0 mm 8 mps 771 mmHg 41%
    19:00 +12°C° 0 mm 8 mps 771 mmHg 44%
    20:00 +11°C° 0 mm 8 mps 771 mmHg 47%
    21:00 +11°C° 0.1 mm 8 mps 771 mmHg 48%
    22:00 +10°C° 0.1 mm 8 mps 772 mmHg 49%
    23:00 +10°C° 0.1 mm 8 mps 772 mmHg 49%

    Tomorrow, 27 September, Thursday

    Time Temperature Precipitation Wind Pressure Humidity
    00:00 +10°C° 0.1 mm 8 mps 772 mmHg 50%
    01:00 +9°C° 0.1 mm 8 mps 771 mmHg 50%
    02:00 +9°C° 0.1 mm 8 mps 771 mmHg 51%
    03:00 +9°C° 0.1 mm 7 mps 771 mmHg 51%
    04:00 +8°C° 0.1 mm 7 mps 771 mmHg 52%
    05:00 +8°C° 0.1 mm 7 mps 770 mmHg 52%
    06:00 +9°C° 0 mm 7 mps 770 mmHg 49%
    07:00 +9°C° 0 mm 7 mps 770 mmHg 47%
    08:00 +10°C° 0 mm 7 mps 771 mmHg 44%
    09:00 +12°C° 0 mm 7 mps 770 mmHg 42%
    10:00 +15°C° 0 mm 7 mps 770 mmHg 40%
    11:00 +16°C° 0 mm 7 mps 770 mmHg 38%
    12:00 +17°C° 0 mm 7 mps 770 mmHg 38%
    13:00 +19°C° 0 mm 6 mps 769 mmHg 38%
    14:00 +20°C° 0 mm 6 mps 769 mmHg 38%
    15:00 +19°C° 0 mm 6 mps 769 mmHg 40%
    16:00 +19°C° 0 mm 6 mps 768 mmHg 42%
    17:00 +17°C° 0 mm 6 mps 768 mmHg 43%
    18:00 +16°C° 0 mm 5 mps 768 mmHg 47%
    19:00 +14°C° 0 mm 5 mps 768 mmHg 52%
    20:00 +13°C° 0 mm 4 mps 768 mmHg 56%
    21:00 +12°C° 0 mm 4 mps 768 mmHg 56%
    22:00 +12°C° 0 mm 4 mps 768 mmHg 56%
    23:00 +12°C° 0 mm 4 mps 768 mmHg 56%

    Day after tomorrow, 28 September, Friday

    Time Temperature Precipitation Wind Pressure Humidity
    00:00 +11°C° 0 mm 4 mps 768 mmHg 55%
    01:00 +11°C° 0 mm 4 mps 767 mmHg 55%
    02:00 +11°C° 0 mm 4 mps 767 mmHg 54%
    03:00 +10°C° 0 mm 4 mps 767 mmHg 54%
    04:00 +10°C° 0 mm 4 mps 766 mmHg 53%
    05:00 +10°C° 0 mm 4 mps 766 mmHg 52%
    06:00 +11°C° 0 mm 4 mps 766 mmHg 49%
    07:00 +12°C° 0 mm 4 mps 766 mmHg 46%
    08:00 +14°C° 0 mm 4 mps 765 mmHg 43%
    09:00 +17°C° 0 mm 4 mps 765 mmHg 43%
    10:00 +19°C° 0 mm 4 mps 765 mmHg 44%
    11:00 +20°C° 0 mm 4 mps 764 mmHg 45%
    12:00 +21°C° 0 mm 4 mps 764 mmHg 44%
    13:00 +22°C° 0 mm 4 mps 763 mmHg 43%
    14:00 +23°C° 0 mm 4 mps 762 mmHg 42%
    15:00 +22°C° 0 mm 4 mps 762 mmHg 46%
    16:00 +21°C° 0 mm 4 mps 761 mmHg 50%
    17:00 +20°C° 0 mm 4 mps 761 mmHg 54%
    18:00 +19°C° 0 mm 4 mps 761 mmHg 60%
    19:00 +18°C° 0 mm 3 mps 761 mmHg 67%
    20:00 +16°C° 0 mm 2 mps 761 mmHg 74%
    21:00 +16°C° 0 mm 2 mps 761 mmHg 74%
    22:00 +16°C° 0 mm 2 mps 761 mmHg 75%
    23:00 +16°C° 0 mm 2 mps 761 mmHg 76%

    29 September, Saturday

    Time Temperature Precipitation Wind Pressure Humidity
    00:00 +16°C° 0 mm 2 mps 760 mmHg 76%
    01:00 +16°C° 0 mm 2 mps 760 mmHg 76%
    02:00 +16°C° 0 mm 2 mps 760 mmHg 75%
    03:00 +16°C° 0.1 mm 2 mps 760 mmHg 77%
    04:00 +16°C° 0.1 mm 2 mps 759 mmHg 80%
    05:00 +15°C° 0.1 mm 2 mps 759 mmHg 82%
    06:00 +16°C° 0 mm 2 mps 759 mmHg 79%
    07:00 +17°C° 0 mm 2 mps 759 mmHg 76%
    08:00 +18°C° 0 mm 2 mps 759 mmHg 73%
    09:00 +19°C° 0 mm 3 mps 759 mmHg 71%
    10:00 +20°C° 0 mm 3 mps 759 mmHg 68%
    11:00 +21°C° 0 mm 3 mps 759 mmHg 65%
    12:00 +21°C° 0.1 mm 4 mps 759 mmHg 66%
    13:00 +21°C° 0.1 mm 4 mps 759 mmHg 67%
    14:00 +21°C° 0.1 mm 4 mps 758 mmHg 68%
    15:00 +20°C° 0.6 mm 4 mps 759 mmHg 70%
    16:00 +19°C° 0.6 mm 5 mps 759 mmHg 71%
    17:00 +19°C° 0.6 mm 5 mps 759 mmHg 73%
    18:00 +17°C° 0.7 mm 5 mps 759 mmHg 73%
    19:00 +16°C° 0.7 mm 6 mps 759 mmHg 73%
    20:00 +15°C° 0.7 mm 6 mps 760 mmHg 74%
    21:00 +15°C° 1 mm 7 mps 760 mmHg 76%
    22:00 +14°C° 1 mm 7 mps 760 mmHg 78%
    23:00 +13°C° 1 mm 8 mps 761 mmHg 80%

    30 September, Sunday

    Time Temperature Precipitation Wind Pressure Humidity
    00:00 +13°C° 0.4 mm 8 mps 761 mmHg 81%
    01:00 +13°C° 0.4 mm 8 mps 761 mmHg 83%
    02:00 +13°C° 0.4 mm 8 mps 761 mmHg 84%
    03:00 +12°C° 0.1 mm 8 mps 761 mmHg 83%
    04:00 +12°C° 0.1 mm 8 mps 761 mmHg 83%
    05:00 +12°C° 0.1 mm 9 mps 761 mmHg 82%
    06:00 +12°C° 0.1 mm 9 mps 761 mmHg 81%
    07:00 +12°C° 0.1 mm 9 mps 762 mmHg 79%
    08:00 +12°C° 0.1 mm 9 mps 762 mmHg 78%
    09:00 +13°C° 0.4 mm 9 mps 762 mmHg 74%
    10:00 +15°C° 0.4 mm 9 mps 762 mmHg 71%
    11:00 +16°C° 0.4 mm 9 mps 762 mmHg 67%
    12:00 +16°C° 0.5 mm 9 mps 762 mmHg 67%
    13:00 +16°C° 0.5 mm 9 mps 762 mmHg 67%
    14:00 +17°C° 0.5 mm 9 mps 761 mmHg 68%
    15:00 +16°C° 0.6 mm 9 mps 761 mmHg 70%
    16:00 +16°C° 0.6 mm 9 mps 761 mmHg 72%
    17:00 +16°C° 0.6 mm 9 mps 761 mmHg 74%
    18:00 +16°C° 0.7 mm 9 mps 761 mmHg 75%
    19:00 +16°C° 0.7 mm 9 mps 762 mmHg 77%
    20:00 +16°C° 0.7 mm 9 mps 762 mmHg 79%
    21:00 +16°C° 0.8 mm 8 mps 761 mmHg 81%
    22:00 +16°C° 0.8 mm 8 mps 761 mmHg 82%
    23:00 +16°C° 0.8 mm 8 mps 761 mmHg 84%

    1 October, Monday

    Time Temperature Precipitation Wind Pressure Humidity
    00:00 +15°C° 0.8 mm 8 mps 761 mmHg 83%
    01:00 +15°C° 0.8 mm 8 mps 760 mmHg 83%
    02:00 +13°C° 0.8 mm 8 mps 760 mmHg 82%
    03:00 +13°C° 0.6 mm 8 mps 760 mmHg 81%
    04:00 +13°C° 0.6 mm 8 mps 760 mmHg 80%
    05:00 +12°C° 0.6 mm 8 mps 759 mmHg 78%
    06:00 +13°C° 0.7 mm 8 mps 759 mmHg 78%
    07:00 +13°C° 0.7 mm 8 mps 759 mmHg 79%
    08:00 +13°C° 0.7 mm 8 mps 759 mmHg 79%
    09:00 +13°C° 0.5 mm 8 mps 758 mmHg 78%
    10:00 +15°C° 0.5 mm 8 mps 758 mmHg 78%
    11:00 +15°C° 0.5 mm 8 mps 758 mmHg 78%
    12:00 +15°C° 1.8 mm 8 mps 758 mmHg 78%
    13:00 +16°C° 1.8 mm 8 mps 757 mmHg 79%
    14:00 +16°C° 1.8 mm 8 mps 757 mmHg 79%
    15:00 +15°C° 4.2 mm 8 mps 757 mmHg 82%
    16:00 +15°C° 4.2 mm 7 mps 757 mmHg 85%
    17:00 +15°C° 4.2 mm 7 mps 757 mmHg 88%
    18:00 +14°C° 1.6 mm 7 mps 757 mmHg 89%
    19:00 +14°C° 1.6 mm 7 mps 757 mmHg 90%
    20:00 +14°C° 1.6 mm 7 mps 757 mmHg 90%
    21:00 +14°C° 0.5 mm 6 mps 757 mmHg 91%
    22:00 +14°C° 0.5 mm 6 mps 757 mmHg 91%
    23:00 +14°C° 0.5 mm 6 mps 758 mmHg 91%
    Show more